[[{"header":{"parameterUnit":"m.s-1","parameterCategory":1,"la1":30.2991,"la2":30.254,"lo1":-89.0895,"lo2":-89.0444,"dy":0.0017,"dx":0.0017,"nx":28,"ny":28,"refTime":"2023-07-25T03:00:00:Z","depth":0,"parameterNumber":2,"parameterNumberName":"U-component_of_WINDS"},"data":[0,0,0,0,0,0,0,0,0,0,0,0,0,0,0,0,0,0,0,0,0,0,0,0,0,0,0,0,0,0,0,0,0,0,0,0,0,0,0,0,0,0,0,0,0,0,0,0,0,0,0,0,0,0,0,0,0,0,0.937,0.9371,0,0.9475,0.9476,0.9477,0.9525,0.9525,0.9525,0.9525,0.9632,0.9634,0.9637,0,0,0,0,0,0,0,0,0,0,0,0,0,0.9208,0.9211,0.937,0.9371,0.9372,0.9475,0.9476,0.9477,0.9525,0.9525,0.9525,0.9525,0.9631,0.9634,0.9638,0,0,0,0,0,0,0,0,0,0,0,0,0,0.9292,0.9212,0.9369,0.9408,0.9413,0.9474,0.9476,0.9478,0.9525,0.9525,0.9525,0.9525,0.9629,0.9634,0.9638,0.9668,0,0,0.9652,0.9653,0,0,0,0,0,0,0,0,0.9287,0.9298,0.9401,0.9406,0.9411,0.9487,0.9458,0.9542,0.9525,0.9482,0.9525,0.9524,0.9583,0.9592,0.9612,0.9673,0.9678,0.9652,0.9655,0.9656,0.9658,0,0,0,0,0,0,0,0.9282,0.9294,0.9411,0.9403,0.9409,0.942,0.9432,0.9474,0.9532,0.9486,0.949,0.9502,0.9586,0.9607,0.9614,0.968,0.9652,0.9656,0.9658,0.966,0.9771,0.9771,0,0,0,0,0,0,0.927,0.9289,0.9408,0.9414,0.9348,0.9423,0.9436,0.9462,0.9532,0.9543,0.9502,0.9503,0.96,0.9609,0.9618,0.9658,0.9656,0.9661,0.9663,0.977,0.9771,0.9771,0,0,0,0,0,0,0.9266,0.928,0.9404,0.9353,0.9369,0.9426,0.9455,0.9465,0.9486,0.9544,0.9554,0.9513,0.96,0.9612,0.9655,0.9663,0.9663,0.9667,0.977,0.977,0.9771,0.9738,0,0,0,0,0,0,0.9261,0.9278,0.9291,0.9353,0.9372,0.9439,0.9456,0.9467,0.9494,0.9497,0.9557,0.9567,0.9601,0.9649,0.966,0.9669,0.967,0.977,0.977,0.9771,0.9739,0.9737,0.9736,0,0,0,0,0,0.9255,0.9277,0.9291,0.9305,0.9389,0.944,0.9451,0.9489,0.9494,0.9507,0.9544,0.9565,0.966,0.9653,0.9666,0.9676,0.9769,0.977,0.9771,0.9739,0.9738,0.9736,0,0,0,0,0,0,0.9215,0.9286,0.9302,0.9345,0.9386,0.9448,0.9465,0.9486,0.9527,0.9528,0.9574,0.9587,0.9626,0.9655,0.9646,0.9709,0.9716,0.972,0.9688,0.9687,0.9686,0.9678,0.9674,0,0,0,0,0,0.9211,0.9247,0.9307,0.9339,0.9359,0.9408,0.9432,0.9458,0.9502,0.9519,0.956,0.9601,0.964,0.9665,0.9705,0.9743,0.9757,0.9756,0.9755,0.9754,0.9756,0.9778,0.9779,0.9773,0.9773,0.9773,0,0,0.9204,0.9247,0.9267,0.9332,0.9367,0.9402,0.9422,0.9459,0.9486,0.9525,0.9568,0.9599,0.9648,0.9689,0.9709,0.9715,0.976,0.9754,0.9753,0.9756,0.9779,0.9779,0.978,0.9774,0.9773,0.9773,0,0,0.9208,0.9245,0.9275,0.9309,0.9361,0.9394,0.9401,0.9459,0.9481,0.9525,0.9555,0.9587,0.9654,0.9687,0.9713,0.9729,0.975,0.974,0.9733,0.9754,0.9755,0.9755,0.9761,0.9762,0.9742,0.9742,0.9742,0,0.9192,0.9247,0.9288,0.9323,0.9351,0.9387,0.9418,0.9449,0.9511,0.9529,0.9534,0.9618,0.9654,0.9703,0.9706,0.9726,0.9735,0.9734,0.9751,0.9753,0.9754,0.9759,0.9761,0.9741,0.9741,0.9741,0.9741,0,0.9225,0.9263,0.9281,0.934,0.9369,0.9402,0.9447,0.9472,0.9495,0.9526,0.957,0.9614,0.9663,0.9676,0.9699,0.9728,0.973,0.9743,0.9752,0.9752,0.9758,0.9761,0.9739,0.9739,0.974,0.974,0,0,0.9208,0.9289,0.9295,0.9321,0.9381,0.9411,0.9444,0.9492,0.9512,0.9553,0.9582,0.9637,0.9649,0.9678,0.9705,0.9723,0.9732,0.9734,0.9736,0.9732,0.9767,0.9757,0.9759,0.9746,0.9747,0.9747,0.9763,0,0.9221,0.9284,0.9321,0.9368,0.9403,0.9438,0.9467,0.9506,0.9536,0.957,0.9603,0.9641,0.9654,0.9672,0.9691,0.9727,0.974,0.9727,0.9774,0.9775,0.9761,0.9762,0.9753,0.9765,0.9765,0.9766,0.9766,0,0.9245,0.9285,0.9336,0.9391,0.9407,0.9433,0.9479,0.951,0.9555,0.9576,0.9607,0.9634,0.9671,0.9676,0.9726,0.9716,0.9738,0.9758,0.976,0.9766,0.9771,0.9769,0.977,0.9772,0.977,0.977,0.977,0,0.9227,0.9294,0.9333,0.9355,0.942,0.9437,0.9465,0.951,0.9536,0.9575,0.9593,0.9636,0.966,0.9693,0.973,0.9731,0.9777,0.9785,0.9795,0.9794,0.9804,0.9803,0.9808,0.9816,0.9816,0.9816,0.9816,0,0.9238,0.9268,0.9326,0.935,0.9384,0.9426,0.9458,0.9489,0.9528,0.9558,0.959,0.9617,0.9665,0.9698,0.9728,0.9765,0.9776,0.9793,0.9801,0.979,0.9788,0.9806,0.9806,0.9817,0.9817,0.9817,0.9817,0,0.9225,0.9265,0.931,0.9367,0.9382,0.9405,0.9454,0.9478,0.9509,0.9547,0.9558,0.9607,0.9648,0.9688,0.9743,0.9763,0.98,0.981,0.9784,0.9789,0.9796,0.9795,0.9813,0.9818,0.9822,0.9822,0.9822,0,0.9229,0.9253,0.9313,0.9335,0.9362,0.9398,0.9424,0.9465,0.9492,0.9544,0.9561,0.9604,0.9641,0.9704,0.9745,0.9786,0.9798,0.9801,0.9805,0.9793,0.9798,0.9797,0.9799,0.98,0.98,0.98,0.98,0,0.9232,0.9251,0.9288,0.9332,0.9362,0.9399,0.9436,0.9452,0.9501,0.9528,0.957,0.9598,0.9654,0.9696,0.9742,0.9771,0.9793,0.9798,0.9803,0.9793,0.9777,0.9786,0.9781,0.9798,0.9798,0.9798,0.9798,0.9798,0.9228,0.9251,0.9296,0.9336,0.9368,0.9402,0.9428,0.9462,0.9498,0.9546,0.9568,0.961,0.9653,0.9718,0.9746,0.9779,0.9785,0.9791,0.9793,0.9794,0.9792,0.9771,0.9787,0.9788,0.9788,0.9788,0.9788,0,0.9233,0.9264,0.93,0.9351,0.9382,0.94,0.9443,0.9467,0.9504,0.9543,0.9578,0.9625,0.9666,0.9709,0.9752,0.9771,0.9782,0.9781,0.978,0.9786,0.9784,0.9776,0.9771,0.9771,0.9771,0.9771,0.9771,0.9771,0.924,0.9278,0.9302,0.9357,0.9387,0.9429,0.9451,0.9482,0.9513,0.9565,0.9599,0.9627,0.9667,0.9714,0.9751,0.9763,0.9778,0.9773,0.9788,0.9785,0.9786,0.9787,0.978,0.9776,0.9776,0.9787,0.9788,0.9788]},{"header":{"parameterUnit":"m.s-1","parameterCategory":1,"la1":30.2991,"la2":30.254,"lo1":-89.0895,"lo2":-89.0444,"dy":0.0017,"dx":0.0017,"nx":28,"ny":28,"refTime":"2023-07-25T03:00:00:Z","depth":0,"parameterNumber":3,"parameterNumberName":"V-component_of_WINDS"},"data":[0,0,0,0,0,0,0,0,0,0,0,0,0,0,0,0,0,0,0,0,0,0,0,0,0,0,0,0,0,0,0,0,0,0,0,0,0,0,0,0,0,0,0,0,0,0,0,0,0,0,0,0,0,0,0,0,0,0,3.1817,3.1817,0,3.1805,3.1805,3.1805,3.1745,3.1744,3.1743,3.1741,3.1729,3.173,3.1731,0,0,0,0,0,0,0,0,0,0,0,0,0,3.1788,3.1789,3.1817,3.1817,3.1817,3.1805,3.1805,3.1805,3.1746,3.1744,3.1742,3.1741,3.1729,3.173,3.1731,0,0,0,0,0,0,0,0,0,0,0,0,0,3.1791,3.179,3.1817,3.1786,3.1783,3.1805,3.1805,3.1805,3.1746,3.1744,3.1742,3.174,3.1728,3.173,3.1731,3.1783,0,0,3.1736,3.1736,0,0,0,0,0,0,0,0,3.1791,3.1792,3.1791,3.1788,3.1785,3.1775,3.179,3.1797,3.1746,3.176,3.1741,3.1739,3.1746,3.1746,3.1748,3.1782,3.1782,3.1736,3.1737,3.1738,3.1738,0,0,0,0,0,0,0,3.1791,3.1793,3.1812,3.1791,3.1787,3.1772,3.177,3.1791,3.1765,3.1759,3.1754,3.1754,3.1744,3.1747,3.1748,3.1781,3.1736,3.1737,3.1738,3.1739,3.1855,3.1857,0,0,0,0,0,0,3.1795,3.1793,3.1813,3.1812,3.1783,3.1775,3.1772,3.178,3.1765,3.176,3.1756,3.1751,3.1745,3.1746,3.1747,3.1804,3.1737,3.1739,3.174,3.1853,3.1855,3.1858,0,0,0,0,0,0,3.1795,3.1798,3.1813,3.1801,3.1802,3.1777,3.1786,3.1781,3.1784,3.1762,3.1757,3.1763,3.1744,3.1745,3.1774,3.1803,3.174,3.1741,3.185,3.1854,3.1857,3.1921,0,0,0,0,0,0,3.1794,3.1798,3.1817,3.1802,3.1803,3.1841,3.1788,3.1782,3.1786,3.178,3.1768,3.1764,3.1742,3.1772,3.1775,3.1804,3.1742,3.1847,3.1852,3.1856,3.1916,3.1926,3.1934,0,0,0,0,0,3.1794,3.1836,3.1819,3.1821,3.1827,3.1843,3.1843,3.1817,3.1789,3.1808,3.1794,3.1765,3.18,3.1775,3.1779,3.1808,3.1845,3.185,3.1855,3.1912,3.1924,3.1934,0,0,0,0,0,0,3.1856,3.1834,3.1814,3.1853,3.185,3.1833,3.1856,3.1831,3.1836,3.183,3.1797,3.1795,3.1828,3.1821,3.1795,3.1856,3.1817,3.1823,3.1859,3.1871,3.188,3.188,3.1743,0,0,0,0,0,3.1875,3.1889,3.1869,3.1906,3.1905,3.1881,3.1887,3.1867,3.1862,3.1861,3.1849,3.1846,3.1856,3.1863,3.1871,3.1915,3.1911,3.1937,3.1946,3.1954,3.1959,3.198,3.1991,3.1874,3.1874,3.1874,0,0,3.1913,3.1902,3.1914,3.1918,3.1913,3.1929,3.188,3.1899,3.191,3.1864,3.189,3.1881,3.1875,3.1911,3.1927,3.1907,3.1991,3.196,3.1967,3.1967,3.1986,3.1997,3.2007,3.1877,3.1877,3.1876,0,0,3.199,3.1984,3.2013,3.2009,3.2002,3.1986,3.1993,3.1979,3.1971,3.1996,3.1961,3.1974,3.1993,3.1989,3.199,3.2065,3.2038,3.2069,3.2117,3.2137,3.2147,3.2154,3.2179,3.2189,3.2074,3.2074,3.2075,0,3.2038,3.206,3.2031,3.2051,3.2054,3.2012,3.2041,3.2039,3.2035,3.2037,3.2015,3.2036,3.203,3.2064,3.2082,3.2085,3.2091,3.2069,3.2148,3.2155,3.2162,3.2186,3.2195,3.2078,3.2078,3.2077,3.2077,0,3.2118,3.2134,3.2158,3.2155,3.216,3.2185,3.2159,3.2168,3.2148,3.2133,3.2159,3.215,3.2155,3.2162,3.2142,3.2192,3.218,3.2154,3.2113,3.2178,3.2199,3.2208,3.2083,3.2082,3.2081,3.208,0,0,3.2234,3.2214,3.2223,3.222,3.2209,3.2221,3.2243,3.2247,3.2255,3.2254,3.2271,3.2287,3.2262,3.2263,3.2243,3.2262,3.2319,3.2232,3.2231,3.2247,3.2372,3.2391,3.2402,3.2302,3.2303,3.2304,3.2372,0,3.2306,3.2342,3.2316,3.2357,3.237,3.2331,3.235,3.2346,3.2333,3.2342,3.2328,3.2339,3.2306,3.2306,3.2323,3.2309,3.2344,3.2304,3.2316,3.2317,3.2317,3.2413,3.2433,3.2497,3.238,3.2382,3.2383,0,3.2394,3.2396,3.2438,3.2423,3.2427,3.2445,3.2446,3.2456,3.245,3.2439,3.244,3.2414,3.2435,3.2397,3.2423,3.2397,3.2401,3.2394,3.2396,3.2395,3.2352,3.2413,3.2517,3.2526,3.2396,3.2395,3.2394,0,3.2472,3.2485,3.2511,3.251,3.2494,3.2507,3.2501,3.2493,3.2496,3.2498,3.2499,3.2504,3.2505,3.2509,3.2485,3.246,3.2514,3.2475,3.2505,3.2506,3.2517,3.2516,3.2622,3.2523,3.2523,3.2522,3.2522,0,3.2554,3.258,3.2545,3.2561,3.259,3.256,3.2589,3.2579,3.2572,3.2584,3.2552,3.2564,3.2533,3.2543,3.2524,3.2548,3.255,3.2541,3.2536,3.2543,3.2544,3.2544,3.2538,3.2525,3.2524,3.2524,3.2524,0,3.2645,3.2623,3.2648,3.263,3.2626,3.2648,3.2632,3.2646,3.2631,3.2648,3.265,3.2627,3.2636,3.2613,3.262,3.2607,3.2641,3.2629,3.2643,3.2639,3.267,3.2666,3.2778,3.279,3.2685,3.2686,3.2687,0,3.2697,3.2717,3.2701,3.2706,3.2702,3.2712,3.2716,3.2688,3.2692,3.2686,3.27,3.2707,3.271,3.2727,3.271,3.2715,3.2702,3.274,3.2702,3.2709,3.27,3.2699,3.27,3.2748,3.2749,3.275,3.2751,0,3.2793,3.278,3.2786,3.2788,3.2793,3.2793,3.2791,3.2798,3.2768,3.2775,3.2784,3.2787,3.2792,3.2799,3.2799,3.2793,3.2767,3.2763,3.277,3.2777,3.2784,3.2779,3.2662,3.2761,3.276,3.2759,3.2758,3.2758,3.2865,3.2879,3.287,3.2877,3.2873,3.2871,3.2883,3.2869,3.2876,3.2877,3.2861,3.2873,3.2865,3.2863,3.2859,3.2868,3.285,3.2861,3.2863,3.2866,3.287,3.2784,3.2868,3.2868,3.2868,3.2867,3.2867,0,3.2957,3.2948,3.2955,3.2953,3.2959,3.2934,3.293,3.2936,3.2947,3.2942,3.2946,3.2955,3.2961,3.2945,3.2949,3.2959,3.2947,3.296,3.2958,3.2957,3.2886,3.2879,3.297,3.297,3.297,3.297,3.297,3.297,3.3005,3.3028,3.3014,3.3034,3.3026,3.3037,3.3037,3.3035,3.3031,3.3042,3.3047,3.3036,3.3026,3.3029,3.3033,3.3028,3.303,3.3048,3.3038,3.2972,3.2962,3.2953,3.2945,3.3049,3.3049,3.3108,3.3108,3.3109]}]]